Location: Kershaw
(34.5481°N, 80.5823°W)
Time: 03:17:52
(UTC+00:00)

Explorer 7 - Pass Details

Date: 06 October 2022
Orbit: 481 x 665 km, 50.3° (Epoch: 30 November)

Event Time Altitude Azimuth Distance (km) Brightness Sun altitude
Rises 21:28:10 0° 308° (NW) 2,917 11.0 17.5°
Reaches altitude 10° 21:30:33 10° 306° (NW) 1,980 10.2 17.0°
Maximum altitude 21:35:04 67° 224° (SW) 643 7.8 16.1°
Drops below altitude 10° 21:39:16 10° 142° (SE) 1,854 9.4 15.3°
Sets 21:41:27 0° 139° (SE) 2,714 10.1 14.9°
